Previsão horária em Almaly

Hoje, 15 Junho, Terça-feira

Tempo Temperatura Precipitação Vento Pressão Humidade
00:00 +21°C° 0 mm 12 m/s 706 mmHg 22%
01:00 +19°C° 0 mm 11 m/s 706 mmHg 24%
02:00 +18°C° 0 mm 10 m/s 706 mmHg 25%
03:00 +18°C° 0 mm 10 m/s 706 mmHg 27%
04:00 +17°C° 0 mm 9 m/s 706 mmHg 28%
05:00 +17°C° 0 mm 9 m/s 706 mmHg 29%
06:00 +18°C° 0 mm 10 m/s 706 mmHg 29%
07:00 +21°C° 0 mm 10 m/s 706 mmHg 28%
08:00 +22°C° 0 mm 11 m/s 707 mmHg 27%
09:00 +24°C° 0 mm 11 m/s 707 mmHg 25%
10:00 +27°C° 0 mm 11 m/s 707 mmHg 22%
11:00 +28°C° 0 mm 12 m/s 707 mmHg 19%
12:00 +29°C° 0 mm 11 m/s 707 mmHg 18%
13:00 +31°C° 0 mm 11 m/s 707 mmHg 17%
14:00 +32°C° 0 mm 10 m/s 707 mmHg 16%
15:00 +32°C° 0 mm 10 m/s 706 mmHg 15%
16:00 +31°C° 0 mm 10 m/s 706 mmHg 15%
17:00 +31°C° 0 mm 10 m/s 706 mmHg 15%
18:00 +29°C° 0 mm 10 m/s 706 mmHg 17%
19:00 +28°C° 0 mm 9 m/s 706 mmHg 19%
20:00 +26°C° 0 mm 9 m/s 705 mmHg 21%
21:00 +24°C° 0 mm 9 m/s 706 mmHg 25%
22:00 +23°C° 0 mm 9 m/s 706 mmHg 30%
23:00 +22°C° 0 mm 9 m/s 706 mmHg 34%

Amanhã, 16 Junho, Quarta-feira

Tempo Temperatura Precipitação Vento Pressão Humidade
00:00 +22°C° 0 mm 8 m/s 705 mmHg 36%
01:00 +21°C° 0 mm 8 m/s 705 mmHg 37%
02:00 +20°C° 0 mm 7 m/s 705 mmHg 39%
03:00 +20°C° 0 mm 6 m/s 705 mmHg 40%
04:00 +19°C° 0 mm 6 m/s 705 mmHg 41%
05:00 +19°C° 0 mm 6 m/s 705 mmHg 42%
06:00 +21°C° 0 mm 7 m/s 705 mmHg 36%
07:00 +23°C° 0 mm 8 m/s 706 mmHg 31%
08:00 +26°C° 0 mm 8 m/s 706 mmHg 26%
09:00 +28°C° 0 mm 9 m/s 706 mmHg 23%
10:00 +29°C° 0 mm 9 m/s 706 mmHg 21%
11:00 +32°C° 0 mm 9 m/s 707 mmHg 19%
12:00 +33°C° 0 mm 9 m/s 707 mmHg 17%
13:00 +33°C° 0 mm 8 m/s 706 mmHg 15%
14:00 +34°C° 0 mm 8 m/s 706 mmHg 14%
15:00 +34°C° 0 mm 8 m/s 706 mmHg 14%
16:00 +34°C° 0 mm 8 m/s 706 mmHg 14%
17:00 +33°C° 0 mm 8 m/s 706 mmHg 14%
18:00 +32°C° 0 mm 8 m/s 706 mmHg 16%
19:00 +29°C° 0 mm 8 m/s 706 mmHg 18%
20:00 +27°C° 0 mm 8 m/s 706 mmHg 21%
21:00 +26°C° 0 mm 7 m/s 706 mmHg 20%
22:00 +24°C° 0 mm 7 m/s 706 mmHg 20%
23:00 +23°C° 0 mm 7 m/s 706 mmHg 19%

Depois de amanhã, 17 Junho, Quinta-feira

Tempo Temperatura Precipitação Vento Pressão Humidade
00:00 +22°C° 0 mm 6 m/s 706 mmHg 20%
01:00 +21°C° 0 mm 6 m/s 706 mmHg 21%
02:00 +21°C° 0 mm 5 m/s 705 mmHg 22%
03:00 +20°C° 0 mm 5 m/s 705 mmHg 24%
04:00 +20°C° 0 mm 5 m/s 705 mmHg 25%
05:00 +19°C° 0 mm 5 m/s 705 mmHg 27%
06:00 +22°C° 0 mm 5 m/s 705 mmHg 25%
07:00 +24°C° 0 mm 6 m/s 706 mmHg 23%
08:00 +27°C° 0 mm 7 m/s 706 mmHg 21%
09:00 +29°C° 0 mm 7 m/s 706 mmHg 20%
10:00 +32°C° 0 mm 8 m/s 706 mmHg 18%
11:00 +33°C° 0 mm 8 m/s 706 mmHg 17%
12:00 +34°C° 0 mm 7 m/s 706 mmHg 16%
13:00 +35°C° 0 mm 6 m/s 706 mmHg 15%
14:00 +36°C° 0 mm 6 m/s 705 mmHg 13%
15:00 +36°C° 0 mm 6 m/s 705 mmHg 13%
16:00 +36°C° 0 mm 6 m/s 705 mmHg 13%
17:00 +36°C° 0 mm 7 m/s 705 mmHg 13%
18:00 +33°C° 0 mm 6 m/s 705 mmHg 15%
19:00 +30°C° 0 mm 6 m/s 705 mmHg 17%
20:00 +28°C° 0 mm 5 m/s 705 mmHg 19%
21:00 +28°C° 0 mm 5 m/s 705 mmHg 20%
22:00 +27°C° 0 mm 5 m/s 705 mmHg 20%
23:00 +26°C° 0 mm 5 m/s 705 mmHg 20%

18 Junho, Sexta-feira

Tempo Temperatura Precipitação Vento Pressão Humidade
00:00 +25°C° 0 mm 5 m/s 705 mmHg 23%
01:00 +23°C° 0 mm 4 m/s 704 mmHg 25%
02:00 +22°C° 0 mm 4 m/s 704 mmHg 28%
03:00 +22°C° 0 mm 4 m/s 704 mmHg 30%
04:00 +22°C° 0 mm 3 m/s 704 mmHg 32%
05:00 +21°C° 0 mm 3 m/s 704 mmHg 33%
06:00 +25°C° 0 mm 3 m/s 704 mmHg 29%
07:00 +28°C° 0 mm 3 m/s 705 mmHg 25%
08:00 +31°C° 0 mm 3 m/s 705 mmHg 21%
09:00 +33°C° 0 mm 3 m/s 705 mmHg 19%
10:00 +34°C° 0 mm 3 m/s 705 mmHg 17%
11:00 +35°C° 0 mm 3 m/s 705 mmHg 15%
12:00 +36°C° 0 mm 4 m/s 705 mmHg 14%
13:00 +37°C° 0 mm 5 m/s 705 mmHg 12%
14:00 +39°C° 0 mm 5 m/s 704 mmHg 11%
15:00 +38°C° 0 mm 6 m/s 704 mmHg 11%
16:00 +38°C° 0 mm 6 m/s 704 mmHg 11%
17:00 +38°C° 0 mm 6 m/s 704 mmHg 11%
18:00 +34°C° 0 mm 5 m/s 704 mmHg 13%
19:00 +30°C° 0 mm 4 m/s 704 mmHg 15%
20:00 +28°C° 0 mm 3 m/s 704 mmHg 17%
21:00 +27°C° 0 mm 2 m/s 704 mmHg 18%
22:00 +26°C° 0 mm 2 m/s 704 mmHg 19%
23:00 +24°C° 0 mm 1 m/s 704 mmHg 20%

19 Junho, Sábado

Tempo Temperatura Precipitação Vento Pressão Humidade
00:00 +24°C° 0 mm 2 m/s 704 mmHg 20%
01:00 +24°C° 0 mm 2 m/s 704 mmHg 20%
02:00 +24°C° 0 mm 2 m/s 704 mmHg 20%
03:00 +24°C° 0 mm 2 m/s 704 mmHg 20%
04:00 +24°C° 0 mm 2 m/s 704 mmHg 21%
05:00 +23°C° 0 mm 2 m/s 704 mmHg 21%
06:00 +26°C° 0 mm 3 m/s 705 mmHg 20%
07:00 +28°C° 0 mm 3 m/s 705 mmHg 18%
08:00 +32°C° 0 mm 4 m/s 705 mmHg 17%
09:00 +33°C° 0 mm 5 m/s 705 mmHg 17%
10:00 +34°C° 0 mm 6 m/s 705 mmHg 17%
11:00 +35°C° 0 mm 7 m/s 705 mmHg 18%
12:00 +34°C° 0 mm 7 m/s 705 mmHg 20%
13:00 +34°C° 0 mm 7 m/s 705 mmHg 23%
14:00 +33°C° 0 mm 8 m/s 705 mmHg 26%
15:00 +32°C° 0 mm 7 m/s 704 mmHg 26%
16:00 +32°C° 0 mm 7 m/s 704 mmHg 27%
17:00 +30°C° 0 mm 7 m/s 704 mmHg 27%
18:00 +28°C° 0 mm 6 m/s 705 mmHg 28%
19:00 +25°C° 0 mm 5 m/s 705 mmHg 29%
20:00 +22°C° 0 mm 4 m/s 706 mmHg 30%
21:00 +20°C° 0 mm 6 m/s 706 mmHg 33%
22:00 +18°C° 0 mm 7 m/s 706 mmHg 36%
23:00 +16°C° 0 mm 8 m/s 707 mmHg 38%

20 Junho, Domingo

Tempo Temperatura Precipitação Vento Pressão Humidade
00:00 +15°C° 0 mm 7 m/s 707 mmHg 41%
01:00 +13°C° 0 mm 6 m/s 707 mmHg 43%
02:00 +12°C° 0 mm 5 m/s 708 mmHg 46%
03:00 +12°C° 0 mm 4 m/s 708 mmHg 46%
04:00 +11°C° 0 mm 4 m/s 708 mmHg 47%
05:00 +11°C° 0 mm 3 m/s 708 mmHg 48%
06:00 +13°C° 0 mm 3 m/s 708 mmHg 41%
07:00 +15°C° 0 mm 4 m/s 709 mmHg 35%
08:00 +18°C° 0 mm 4 m/s 709 mmHg 28%
09:00 +19°C° 0 mm 3 m/s 709 mmHg 26%
10:00 +20°C° 0 mm 3 m/s 710 mmHg 24%
11:00 +21°C° 0 mm 3 m/s 710 mmHg 22%
12:00 +22°C° 0 mm 3 m/s 710 mmHg 20%
13:00 +23°C° 0 mm 4 m/s 710 mmHg 18%
14:00 +25°C° 0 mm 5 m/s 710 mmHg 16%
15:00 +25°C° 0 mm 5 m/s 710 mmHg 16%
16:00 +25°C° 0 mm 5 m/s 710 mmHg 16%
17:00 +25°C° 0 mm 5 m/s 710 mmHg 17%
18:00 +22°C° 0 mm 4 m/s 710 mmHg 19%
19:00 +20°C° 0 mm 3 m/s 710 mmHg 22%
20:00 +19°C° 0 mm 3 m/s 710 mmHg 25%
21:00 +18°C° 0 mm 2 m/s 710 mmHg 26%
22:00 +17°C° 0 mm 2 m/s 710 mmHg 28%
23:00 +16°C° 0 mm 2 m/s 710 mmHg 30%
Mostrar mais